Hurricane Symbol View the latest observations near East Pacific Tropical Storm Bud.

Station 41013 (LLNR 815) - Frying Pan Shoals, NC Image indicating link to RSS feed of recent meteorological observations for station 41013


Conditions at 41013 as of
(7:20 pm EDT)
2320 GMT on 07/24/2024:
     

Click on the graph icon in the table below to see a time series plot of the last five days of that observation.

5-day plot - Wind Direction Wind Direction (WDIR): S ( 190 deg true )
5-day plot - Wind Speed Wind Speed (WSPD): 13.6 kts
5-day plot - Wind Gust Wind Gust (GST): 17.5 kts
5-day plot - Wave Height Wave Height (WVHT): 3.6 ft
5-day plot - Dominant Wave Period Dominant Wave Period (DPD): 6 sec
5-day plot - Average Wave Period Average Period (APD): 4.6 sec
5-day plot - Mean Wave Direction Mean Wave Direction (MWD): S ( 171 deg true )
5-day plot - Atmospheric Pressure Atmospheric Pressure (PRES):30.19 in
5-day plot - Air Temperature Air Temperature (ATMP): 83.8 °F
5-day plot - Water Temperature Water Temperature (WTMP): 83.8 °F
5-day plot - Dew Point Dew Point (DEWP): 80.1 °F
5-day plot - Heat Index Heat Index (HEAT): 96.8 °F
5-day plot - Wind Speed at 10 Meters Wind Speed at 10 meters (WSPD10M): 15.5 kts
5-day plot - Wind Speed at 20 Meters Wind Speed at 20 meters (WSPD20M): 15.5 kts
5-day plot -  Wind Speed, Wind Gust and Atmospheric Pressure Combined plot of Wind Speed, Gust, and Air Pressure
Supplemental Measurements
Highest 1-minute Wind Speed
Time (EDT)5-day plot - 1-Minute Wind Speed WSPD 5-day plot - 1-Minute Wind Direction WDIR
7:19 pm 15.5 kts-
Previous observations
TIME
(EDT)
5-day plot - Wind Direction
WDIR
 
5-day plot - Wind Speed
WSPD
kts
5-day plot - Wind Gust
GST
kts
5-day plot - Wave Height
WVHT
ft
5-day plot - Dominant Wave Period
DPD
sec
5-day plot - Average Wave Period
APD
sec
5-day plot - Mean Wave Direction
MWD
 
5-day plot - Atmospheric Pressure
PRES
in
5-day plot - Pressure Tendency
PTDY
in
5-day plot - Air Temperature
ATMP
°F
5-day plot - Water Temperature
WTMP
°F
5-day plot - Dew Point
DEWP
°F
5-day plot - Salinity
SAL
psu
5-day plot - Visibility
VIS
nmi
5-day plot - Tide (above MLLW)
TIDE
ft
2024-07-24 07:10 pmSSW 13.6 17.5 3.6-4.6 S30.19- 84.0 83.8 80.1---
2024-07-24 07:00 pmSSW 13.6 17.5----30.19-0.02 84.0 83.8 79.9---
2024-07-24 06:50 pmSSW 13.6 17.5 3.6 64.6SSE30.18- 84.0 83.8 80.2---
2024-07-24 06:40 pmSSW 11.7 15.5----30.18- 84.0 83.8 80.1---
2024-07-24 06:30 pmSSW 11.7 15.5----30.18- 84.0 83.8 79.9---
2024-07-24 06:20 pmSSW 11.7 15.5 3.6 74.6 SE30.18- 84.0 83.8 79.7---
2024-07-24 06:10 pmSSW 13.6 17.5 3.6-4.6 SE30.18- 84.0 83.8 79.5---
2024-07-24 06:00 pmSSW 13.6 15.5----30.19-0.02 84.0 83.8 79.7---
2024-07-24 05:50 pmSSW 11.7 15.5 3.6 84.6 SE30.19- 84.0 83.8 79.5---
2024-07-24 05:40 pmSSW 13.6 15.5 3.6-4.6 SE30.19- 84.0 83.8 79.3---
2024-07-24 05:30 pmSSW 11.7 15.5----30.20- 84.2 83.8 79.2---
2024-07-24 05:20 pmSSW 13.6 15.5 3.6 84.7 SE30.20- 84.0 83.8 78.6---
2024-07-24 05:10 pmSSW 11.7 13.6 3.6-4.7 SE30.20- 84.0 83.8 79.3---
2024-07-24 05:00 pmSSW 11.7 13.6----30.20-0.03 83.8 83.8 79.0---
2024-07-24 04:50 pmSSW 11.7 15.5 3.6 74.6SSE30.20- 83.8 83.8 79.0---
2024-07-24 04:40 pmSSW 13.6 15.5----30.20- 83.8 83.8 79.2---
2024-07-24 04:30 pmSSW 13.6 15.5----30.20- 83.8 83.8 79.2---
2024-07-24 04:20 pmSSW 13.6 15.5 3.6 84.6 SE30.20- 83.8 83.8 79.7---
2024-07-24 04:10 pmSSW 13.6 15.5 3.6-4.6 SE30.20- 84.0- 79.9---
2024-07-24 04:00 pmSSW 13.6 17.5----30.21-0.03 84.0 83.8 79.5---
2024-07-24 03:50 pmSSW 13.6 17.5 3.6 74.7 SE30.21- 83.8 83.8 79.3---
2024-07-24 03:40 pm S 13.6 17.5----30.21- 83.7 83.8 79.7---
2024-07-24 03:30 pm S 13.6 15.5----30.21- 83.7 83.8 79.9---
2024-07-24 03:20 pm S 13.6 15.5 3.6 64.7SSE30.21- 83.7 83.8 79.9---
2024-07-24 03:10 pm S 13.6 17.5 3.6-4.7SSE30.21- 83.7 83.8 79.7---
2024-07-24 03:00 pm S 13.6 17.5----30.22-0.02 83.8 83.8 79.9---
2024-07-24 02:50 pm S 13.6 15.5 3.6 75.0SSE30.22- 83.8 83.8 79.2---
2024-07-24 02:40 pmSSW 13.6 15.5 3.6-5.0SSE30.22- 83.8 83.8 79.0---
2024-07-24 02:30 pmSSW 13.6 15.5----30.22- 83.8 83.8 78.8---
2024-07-24 02:20 pmSSW 13.6 15.5 3.6 64.9SSE30.23- 83.8 83.8 78.6---
2024-07-24 02:10 pmSSW 11.7 15.5 3.6-4.9SSE30.23- 83.8 83.8 78.8---
2024-07-24 02:00 pmSSW 11.7 15.5----30.23+0.00 83.8 83.8 79.2---
2024-07-24 01:50 pmSSW 11.7 15.5 3.3 64.8 S30.23- 83.8 83.8 79.2---
2024-07-24 01:40 pmSSW 11.7 15.5----30.23- 83.7 83.8 79.2---
2024-07-24 01:30 pmSSW 13.6 15.5----30.23- 83.5 83.8 79.2---
2024-07-24 01:20 pmSSW 13.6 15.5 3.6 65.0 S30.23- 83.5 83.7 79.3---
2024-07-24 01:10 pmSSW 13.6 15.5 3.6-5.0 S30.23- 83.5 83.7 79.2---
2024-07-24 01:00 pmSSW 13.6 15.5----30.24+0.01 83.3 83.7 79.0---
2024-07-24 12:50 pmSSW 11.7 15.5 3.6 65.1 S30.24- 83.3 83.7 79.0---
2024-07-24 12:40 pmSSW 11.7 15.5----30.24- 83.1 83.7 78.8---
2024-07-24 12:30 pmSSW 11.7 13.6----30.24- 83.1 83.7 79.2---
2024-07-24 12:20 pmSSW 11.7 13.6 3.6 65.0 S30.24- 83.3 83.7 79.3---
2024-07-24 12:10 pmSSW 11.7 13.6 3.6-5.0 S30.24- 83.7 83.5 78.6---
2024-07-24 12:00 pmSSW 11.7 15.5----30.24+0.02 83.5 83.5 77.9---
2024-07-24 11:50 amSSW 11.7 15.5 3.6 65.1 S30.24- 83.7 83.5 78.3---
2024-07-24 11:40 amSSW 11.7 13.6 3.6-5.1 S30.24- 83.7 83.5 77.7---
2024-07-24 11:30 amSSW 9.7 11.7----30.24- 83.7 83.5 77.5---
2024-07-24 11:20 amSSW 9.7 11.7 3.9 64.9 S30.24- 83.7 83.5 77.4---
2024-07-24 11:10 amSSW 9.7 11.7 3.9-4.9 S30.24- 83.3 83.5 77.7---
2024-07-24 11:00 amSSW 9.7 11.7----30.24+0.03 83.1- 78.1---
2024-07-24 10:50 amSSW 9.7 11.7 3.9 64.8 S30.23- 83.3 83.5 78.6---
2024-07-24 10:40 amSSW 9.7 13.6 3.9-4.8 S30.23- 82.9 83.5 78.4---
2024-07-24 10:30 amSSW 9.7 11.7----30.23- 82.9 83.5 78.6---
2024-07-24 10:20 am SW 11.7 13.6 3.9 64.7SSE30.22- 82.8 83.5 78.4---
2024-07-24 10:10 am SW 9.7 13.6 3.9-4.7SSE30.22- 83.1 83.5 78.4---
2024-07-24 10:00 am SW 11.7 13.6----30.22+0.01 82.9 83.3 77.2---
2024-07-24 09:50 am SW 11.7 13.6 4.3 64.6 S30.22- 82.9 83.3 76.5---
2024-07-24 09:40 am SW 11.7 13.6 4.3-4.6 S30.22- 82.8 83.3 76.3---
2024-07-24 09:30 am SW 9.7 11.7----30.22- 82.8 83.3 77.0---
2024-07-24 09:20 am SW 9.7 11.7 4.6 64.6 S30.22- 82.4 83.3 76.6---
2024-07-24 09:10 amSSW 11.7 13.6 4.6-4.6 S30.22- 82.0 83.3 77.0---
2024-07-24 09:00 am SW 11.7 15.5----30.22+0.02 81.9 83.3 77.9---
2024-07-24 08:50 amSSW 13.6 15.5 4.6 64.7 S30.22- 82.0 83.3 78.1---
2024-07-24 08:40 am SW 15.5 17.5----30.22- 82.0 83.3 77.9---
2024-07-24 08:30 am SW 15.5 19.4----30.22- 82.4 83.1 77.9---
2024-07-24 08:20 am SW 15.5 19.4 4.9 64.6 S30.22- 81.7 83.1 76.8---
2024-07-24 08:10 amWSW 17.5 23.3 4.9-4.6 S30.22- 81.3 83.1 76.6---
2024-07-24 08:00 am SW 17.5 23.3----30.21+0.03 82.4 83.1 77.5---
2024-07-24 07:50 amSSW 15.5 17.5 5.2 64.8 S30.20- 83.5 83.1 79.7---
2024-07-24 07:40 amSSW 15.5 17.5----30.19- 83.7 83.1 80.1---
2024-07-24 07:30 amSSW 13.6 17.5----30.19- 83.5 82.9 80.1---
2024-07-24 07:20 amSSW 13.6 17.5 4.9 64.7 S30.20- 83.5 82.9 80.1---
2024-07-24 07:10 amSSW 13.6 15.5 4.9-4.7 S30.21- 83.5 82.9 80.1---
2024-07-24 07:00 amSSW 13.6 15.5----30.21+0.03 83.5 82.9 80.1---
2024-07-24 06:50 amSSW 11.7 15.5 5.2 64.7 S30.21- 83.7 82.8 80.2---
2024-07-24 06:40 am SW 13.6 15.5 5.2-4.7 S30.21- 83.7 82.8 79.9---
2024-07-24 06:30 am SW 13.6 17.5----30.21- 83.7 82.8 79.7---
2024-07-24 06:20 am SW 15.5 19.4 5.6 64.9 S30.21- 83.7 82.8 79.5---
2024-07-24 06:10 am SW 15.5 19.4 5.6-4.9 S30.20- 83.7 82.8 79.5---
2024-07-24 06:00 am SW 15.5 17.5----30.20+0.02 83.7 82.6 79.3---
2024-07-24 05:50 amSSW 15.5 17.5 5.2 64.9 S30.19- 83.5 82.6 79.0---
2024-07-24 05:40 amSSW 15.5 17.5 5.2-4.9 S30.19- 83.5 82.6 79.0---
2024-07-24 05:30 am SW 15.5 19.4----30.19- 83.5 82.6 78.8---
2024-07-24 05:20 am SW 17.5 21.4 5.6 64.9 S30.18- 83.3 82.6 78.6---
2024-07-24 05:10 am SW 17.5 21.4 5.6-4.9 S30.18- 83.3 82.6 78.8---
2024-07-24 05:00 am SW 17.5 19.4----30.18+0.00 83.3 82.6 79.0---
2024-07-24 04:50 amSSW 17.5 21.4 5.6 54.8 S30.18- 83.3 82.6 78.8---
2024-07-24 04:40 amSSW 17.5 23.3 5.6-4.8 S30.18- 83.1 82.6 78.3---
2024-07-24 04:30 amSSW 19.4 23.3----30.18- 83.5 82.6 78.3---
2024-07-24 04:20 amSSW 19.4 23.3 5.6 54.8SSW30.18- 83.7 82.6 77.9---
2024-07-24 04:10 amSSW 17.5 21.4 5.6-4.8SSW30.19- 83.5 82.6 77.5---
2024-07-24 04:00 amSSW 17.5 21.4----30.18+0.00 83.7 82.4 77.7---
2024-07-24 03:50 amSSW 19.4 23.3 5.2 64.7 S30.18- 83.7 82.6 77.2---
2024-07-24 03:40 amSSW 19.4 23.3 5.2-4.7 S30.18- 83.5 82.6 77.7---
2024-07-24 03:30 am SW 19.4 23.3----30.18- 83.3 82.6 78.4---
2024-07-24 03:20 amSSW 17.5 23.3 4.9 54.7 S30.19- 83.5 82.6 78.3---
2024-07-24 03:10 amSSW 17.5 23.3 4.9-4.7 S30.18- 83.5 82.6 78.3---
2024-07-24 03:00 amSSW 19.4 23.3----30.18+0.00 83.7 82.6 78.8---
2024-07-24 02:50 amSSW 19.4 23.3 4.6 54.6SSW30.18- 83.7- 79.0---
2024-07-24 02:40 amSSW 19.4 25.3 4.6-4.6SSW30.19- 83.5 82.8 79.0---
2024-07-24 02:30 amSSW 19.4 23.3----30.19- 83.5 82.9 79.5---
2024-07-24 02:20 amSSW 19.4 23.3 4.6 54.7 S30.18- 83.7 82.9 80.1---
2024-07-24 02:10 amSSW 19.4 23.3 4.6-4.7 S30.18- 83.7 82.9 79.7---
2024-07-24 02:00 amSSW 19.4 23.3----30.18+0.01 83.5 83.1 79.5---
2024-07-24 01:50 amSSW 17.5 23.3 4.3 54.6 S30.18- 83.8 83.1 79.7---
2024-07-24 01:40 amSSW 19.4 23.3----30.18- 84.0 82.9 79.2---
2024-07-24 01:30 amSSW 19.4 23.3----30.19- 83.8 83.1 79.2---
2024-07-24 01:20 amSSW 17.5 23.3 4.3 44.5SSW30.19- 83.7 83.1 79.5---
2024-07-24 01:10 amSSW 17.5 23.3 4.3-4.5SSW30.19- 83.8 83.3 79.3---
2024-07-24 01:00 amSSW 17.5 23.3----30.19+0.03 83.8 83.3 79.5---
2024-07-24 12:50 amSSW 17.5 21.4 4.3 84.5 SE30.19- 83.8 83.3 79.5---
2024-07-24 12:40 amSSW 17.5 21.4----30.19- 83.8 83.3 79.5---
2024-07-24 12:30 am S 17.5 21.4----30.19- 84.0 83.3 79.2---
2024-07-24 12:20 amSSW 17.5 23.3 3.9 74.6 SE30.18- 83.8 83.3 79.5---
2024-07-24 12:10 amSSW 17.5 21.4 3.9-4.6 SE30.18- 83.8 83.3 79.3---
2024-07-24 12:00 amSSW 17.5 21.4----30.17+0.04 83.8 83.3 79.3---
2024-07-23 11:50 pmSSW 17.5 21.4 3.6 94.5 SE30.17- 84.0 83.5 79.2---
2024-07-23 11:40 pm S 17.5 21.4----30.17- 83.8 83.5 79.2---
2024-07-23 11:30 pm S 17.5 23.3----30.16- 84.0 83.7 79.5---
2024-07-23 11:20 pm S 17.5 21.4 3.6 84.3SSE30.17- 84.0 83.7 79.5---
2024-07-23 11:10 pm S 17.5 21.4 3.6-4.3SSE30.17- 84.0 83.7 79.5---
2024-07-23 11:00 pm S 17.5 19.4----30.16+0.03 84.0 83.8 79.7---
2024-07-23 10:50 pm S 15.5 21.4 3.6 74.4 SE30.16- 84.0 84.0 79.7---
2024-07-23 10:40 pm S 17.5 19.4 3.6-4.4 SE30.16- 84.0 84.0 79.5---
2024-07-23 10:30 pmSSW 15.5 19.4----30.16- 84.0 84.0 79.9---
2024-07-23 10:20 pmSSW 15.5 19.4 3.3 74.4 SE30.16- 84.2 83.8 79.7---
2024-07-23 10:10 pmSSW 15.5 17.5 3.3-4.4 SE30.16- 84.4 83.8 79.3---
2024-07-23 10:00 pmSSW 15.5 19.4----30.16+0.04 84.2 84.0 79.0---
2024-07-23 09:50 pmSSW 15.5 17.5 3.6 94.4ESE30.16- 84.4 84.0 79.0---
2024-07-23 09:40 pmSSW 15.5 17.5 3.6-4.4ESE30.15- 84.4 84.0 78.4---
2024-07-23 09:30 pmSSW 15.5 19.4----30.15- 84.4 84.0 78.4---
2024-07-23 09:20 pmSSW 15.5 19.4 3.0 84.4 SE30.14- 84.2 84.0 78.6---
2024-07-23 09:10 pmSSW 17.5 19.4----30.13- 84.2 84.0 78.6---
2024-07-23 09:00 pmSSW 15.5 21.4----30.14+0.03 84.2 84.0 78.6---
2024-07-23 08:50 pm S 15.5 19.4 3.3 94.6 SE30.13- 84.2 84.0 79.2---
2024-07-23 08:40 pmSSW 15.5 19.4 3.3-4.6 SE30.13- 84.0 84.0 79.2---
2024-07-23 08:30 pm S 15.5 17.5----30.13- 83.8 84.2 79.7---
2024-07-23 08:20 pm S 13.6 15.5 3.3 74.7 SE30.13- 83.8 84.2 80.1---
2024-07-23 08:10 pm S 11.7 15.5 3.3-4.7 SE30.13- 84.0 84.2 80.4---
2024-07-23 08:00 pmSSW 13.6 15.5----30.13+0.02 84.0 84.4 80.2---
2024-07-23 07:50 pmSSW 13.6 17.5 3.3 84.9ESE30.13- 84.0 84.4 79.9---
2024-07-23 07:40 pmSSW 13.6 15.5----30.13- 84.0 84.4 79.7---
2024-07-23 07:30 pmSSW 11.7 15.5----30.12- 84.0 84.4 79.3---
2024-07-23 07:20 pmSSW 11.7 15.5 3.6 74.9SSE30.11- 83.8 84.2 79.2---
2024-07-23 07:10 pmSSW 11.7 15.5 3.6-4.9SSE30.12- 84.0 84.2 79.9---
2024-07-23 07:00 pmSSW 11.7 15.5----30.11+0.00 84.2 84.2 79.7---
2024-07-23 06:50 pmSSW 11.7 13.6 3.3 74.7 SE30.11- 84.2 84.2 79.5---

Detailed Wave Summary
for 41013 as of (7:10 pm EDT)
2310 GMT on 07/24/2024:

These wave data are displayed in rounded times.

     

Click on the graph icon in the table below to see a time series plot of the last five days of that observation.

5-day plot - Significant Wave Height Significant Wave Height (WVHT): 3.6 ft
5-day plot - Swell Height Swell Height (SwH): 2.0 ft
5-day plot - Swell Period Swell Period (SwP): 8.3 sec
5-day plot - Swell Direction Swell Direction (SwD):ESE
5-day plot - Wind Wave Height Wind Wave Height (WWH): 3.3 ft
5-day plot - Wind Wave Period Wind Wave Period (WWP): 5.6 sec
5-day plot - Wind Wave Direction Wind Wave Direction (WWD): S
5-day plot - Wave Steepness Wave Steepness (STEEPNESS): STEEP
5-day plot - Average Wave Period Average Wave Period (APD): 4.6 sec
Previous observations
TIME
(EDT)
5-day plot - Wave Height
WVHT
ft
5-day plot - Swell Height
SwH
ft
5-day plot - Swell Period
SwP
sec
5-day plot - Swell Direction
SwD
 
5-day plot - Wind Wave Height
WWH
ft
5-day plot - Wind Wave Period
WWP
sec
5-day plot - Wind Wave Direction
WWD
 
5-day plot - Wave Steepness
STEEPNESS
 
5-day plot - Average Wave Period
APD
sec
2024-07-24 06:40 pm 3.6 2.3 6.2SSE 3.0 5.6 S STEEP 4.6
2024-07-24 06:10 pm 3.6 2.0 7.1 SE 3.0 5.6 S AVERAGE 4.6
2024-07-24 05:40 pm 3.6 2.0 7.7 SE 3.0 5.3 S AVERAGE 4.6
2024-07-24 05:10 pm 3.6 2.6 8.3 SE 2.6 5.3 S AVERAGE 4.7
2024-07-24 04:40 pm 3.6 2.0 6.7SSE 3.0 5.3 SSE STEEP 4.6
2024-07-24 04:10 pm 3.6 2.3 8.3 SE 2.6 5.6 S AVERAGE 4.6
2024-07-24 03:40 pm 3.6 2.0 8.3 SE 3.0 6.7 SE STEEP 4.7
2024-07-24 03:10 pm 3.6 2.3 7.7 SE 3.0 6.2 SSE STEEP 4.7
2024-07-24 02:40 pm 3.6 2.3 6.7SSE 2.6 5.9 SSE STEEP 5.0
2024-07-24 02:10 pm 3.6 2.6 8.3 SE 2.6 5.9 SSE STEEP 4.9
2024-07-24 01:40 pm 3.3 2.3 6.2 S 2.6 5.6 S STEEP 4.8
2024-07-24 01:10 pm 3.6 2.3 8.3SSE 3.0 5.9 S STEEP 5.0
2024-07-24 12:40 pm 3.6 2.6 6.2 S 2.6 5.6 S STEEP 5.1
2024-07-24 12:10 pm 3.6 3.0 5.9 S 2.0 4.2 SSW STEEP 5.0
2024-07-24 11:40 am 3.6 3.0 5.9 S 2.3 5.3 S STEEP 5.1
2024-07-24 11:10 am 3.9 3.3 5.9 S 2.0 3.7 SSW STEEP 4.9
2024-07-24 10:40 am 3.9 3.3 5.9 S 2.3 4.0 SSW STEEP 4.8
2024-07-24 10:10 am 3.9 3.0 5.9SSE 2.6 4.8 SSW STEEP 4.7
2024-07-24 09:40 am 4.3 3.0 5.6 S 3.0 4.3 SSWVERY_STEEP 4.6
2024-07-24 09:10 am 4.6 3.3 5.6 S 3.3 3.8 SSWVERY_STEEP 4.6
2024-07-24 08:40 am 4.6 1.6 8.3 SE 4.3 6.2 S STEEP 4.7
2024-07-24 08:10 am 4.9 1.3 9.1 SE 4.6 5.9 SVERY_STEEP 4.6
2024-07-24 07:40 am 5.2 2.0 7.7 SE 4.9 5.9 SVERY_STEEP 4.8
2024-07-24 07:10 am 4.9 2.0 13.8 S 4.6 5.9 SVERY_STEEP 4.7
2024-07-24 06:40 am 5.2 2.3 13.8 N 4.6 5.6 SVERY_STEEP 4.7
2024-07-24 06:10 am 5.6 1.6 8.3 SE 5.2 5.6 SVERY_STEEP 4.9
2024-07-24 05:40 am 5.2 1.6 13.8ENE 4.9 5.9 SVERY_STEEP 4.9
2024-07-24 05:10 am 5.6 1.3 14.8ENE 5.6 5.6 SVERY_STEEP 4.9
2024-07-24 04:40 am 5.6 1.3 13.8 S 5.6 5.3 SVERY_STEEP 4.8
2024-07-24 04:10 am 5.6 1.3 14.8SSE 5.2 5.3 SSWVERY_STEEP 4.8
2024-07-24 03:40 am 5.2 1.3 9.1 SE 5.2 5.6 SVERY_STEEP 4.7
2024-07-24 03:10 am 4.9 1.6 9.1ESE 4.6 5.0 SVERY_STEEP 4.7
2024-07-24 02:40 am 4.6 2.0 9.1 SE 4.3 5.0 SSWVERY_STEEP 4.6
2024-07-24 02:10 am 4.6 1.6 9.1ESE 4.3 5.0 SVERY_STEEP 4.7
2024-07-24 01:40 am 4.3 2.0 7.7 SE 3.9 5.0 SVERY_STEEP 4.6
2024-07-24 01:10 am 4.3 2.0 8.3 SE 3.6 4.3 SSWVERY_STEEP 4.5
2024-07-24 12:40 am 4.3 2.0 8.3 SE 3.6 6.7 SE AVERAGE 4.5
2024-07-24 12:10 am 3.9 2.6 7.1 SE 3.0 4.3 S AVERAGE 4.6
2024-07-23 11:40 pm 3.6 2.3 9.1 SE 3.0 6.2 SE AVERAGE 4.5
2024-07-23 11:10 pm 3.6 2.3 8.3SSE 3.0 3.8 SSW AVERAGE 4.3
2024-07-23 10:40 pm 3.6 2.3 7.1 SE 2.6 3.8 SSW AVERAGE 4.4
2024-07-23 10:10 pm 3.3 2.3 7.1 SE 2.3 3.4 SSW AVERAGE 4.4
2024-07-23 09:40 pm 3.6 2.6 9.1ESE 2.3 3.4 SSW SWELL 4.4
2024-07-23 09:10 pm 3.0 2.3 7.7 SE 2.0 3.2 SSW AVERAGE 4.4
2024-07-23 08:40 pm 3.3 2.6 9.1 SE 2.0 3.2 SSW SWELL 4.6
2024-07-23 08:10 pm 3.3 2.6 7.1 SE 2.0 3.4 SSW AVERAGE 4.7
2024-07-23 07:40 pm 3.3 2.6 8.3ESE 2.0 3.4 SSW SWELL 4.9
2024-07-23 07:10 pm 3.6 2.6 6.7SSE 2.0 5.3 SSE AVERAGE 4.9

Plot of wave energy versus frequency (and period)